TimeCST,TemperatureF,Dew PointF,Humidity,Sea Level PressureIn,VisibilityMPH,Wind Direction,Wind SpeedMPH,Gust SpeedMPH,PrecipitationIn,Events,Conditions,WindDirDegrees,DateUTC
12:28 AM,23.0,21.2,93,29.69,2.5,Calm,Calm,-,N/A,,Scattered Clouds,0,2013-01-29 06:28:00
12:31 AM,23.0,21.2,93,29.69,1.0,Calm,Calm,-,N/A,,Mist,0,2013-01-29 06:31:00
12:38 AM,24.8,21.2,86,29.68,0.2,Calm,Calm,-,N/A,Fog,Light Freezing Fog,0,2013-01-29 06:38:00
12:52 AM,21.9,19.9,92,29.75,0.2,Calm,Calm,-,N/A,Fog,Light Freezing Fog,0,2013-01-29 06:52:00
1:12 AM,19.4,19.4,100,29.67,2.5,Calm,Calm,-,N/A,,Mostly Cloudy,0,2013-01-29 07:12:00
1:19 AM,21.2,21.2,100,29.67,8.0,Calm,Calm,-,N/A,,Mostly Cloudy,0,2013-01-29 07:19:00
1:52 AM,19.9,19.0,96,29.74,10.0,Calm,Calm,-,N/A,,Partly Cloudy,0,2013-01-29 07:52:00
2:41 AM,19.4,17.6,93,29.67,3.0,Calm,Calm,-,N/A,,Mostly Cloudy,0,2013-01-29 08:41:00
2:44 AM,19.4,17.6,93,29.67,1.8,Calm,Calm,-,N/A,,Mostly Cloudy,0,2013-01-29 08:44:00
2:52 AM,19.0,17.1,92,29.74,3.0,Calm,Calm,-,N/A,,Overcast,0,2013-01-29 08:52:00
2:54 AM,19.4,17.6,93,29.67,1.8,Calm,Calm,-,N/A,,Overcast,0,2013-01-29 08:54:00
3:03 AM,21.2,17.6,86,29.67,0.5,ESE,3.5,-,N/A,Fog,Light Freezing Fog,120,2013-01-29 09:03:00
3:23 AM,19.4,17.6,93,29.66,2.0,Calm,Calm,-,N/A,,Overcast,0,2013-01-29 09:23:00
3:35 AM,17.6,17.6,100,29.67,1.5,Calm,Calm,-,N/A,,Overcast,0,2013-01-29 09:35:00
3:52 AM,19.9,18.0,92,29.73,2.5,North,3.5,-,N/A,,Overcast,350,2013-01-29 09:52:00
3:59 AM,21.2,19.4,93,29.66,5.0,North,3.5,-,N/A,,Overcast,350,2013-01-29 09:59:00
4:52 AM,23.0,19.9,88,29.72,10.0,NW,5.8,-,N/A,,Overcast,320,2013-01-29 10:52:00
5:52 AM,19.9,18.0,92,29.73,10.0,North,3.5,-,N/A,,Overcast,350,2013-01-29 11:52:00
6:52 AM,21.0,19.0,92,29.74,10.0,North,3.5,-,N/A,,Overcast,350,2013-01-29 12:52:00
7:52 AM,21.0,19.0,92,29.75,10.0,Calm,Calm,-,N/A,,Overcast,0,2013-01-29 13:52:00
8:52 AM,21.0,19.9,96,29.76,10.0,North,3.5,-,N/A,,Overcast,360,2013-01-29 14:52:00
9:52 AM,21.9,21.9,100,29.77,10.0,North,4.6,-,N/A,,Mostly Cloudy,350,2013-01-29 15:52:00
10:52 AM,24.1,23.0,96,29.79,10.0,Calm,Calm,-,N/A,,Clear,0,2013-01-29 16:52:00
11:52 AM,26.1,23.0,88,29.79,10.0,Calm,Calm,-,N/A,,Mostly Cloudy,0,2013-01-29 17:52:00
12:52 PM,28.0,23.0,81,29.79,10.0,North,10.4,-,N/A,,Clear,360,2013-01-29 18:52:00
1:43 PM,28.4,23.0,80,29.73,10.0,North,9.2,-,N/A,,Scattered Clouds,360,2013-01-29 19:43:00
1:52 PM,28.0,21.9,78,29.81,7.0,NNE,9.2,-,N/A,,Mostly Cloudy,20,2013-01-29 19:52:00
2:10 PM,26.6,21.2,80,29.73,5.0,North,12.7,-,N/A,,Overcast,360,2013-01-29 20:10:00
2:46 PM,24.8,21.2,86,29.75,2.5,North,15.0,-,N/A,,Overcast,10,2013-01-29 20:46:00
2:52 PM,24.1,21.9,91,29.84,2.5,NNE,13.8,-,N/A,,Overcast,20,2013-01-29 20:52:00
3:14 PM,24.8,21.2,86,29.78,3.0,North,10.4,16.1,N/A,,Overcast,360,2013-01-29 21:14:00
3:52 PM,21.9,19.0,89,29.88,4.0,North,15.0,-,N/A,,Overcast,360,2013-01-29 21:52:00
4:52 PM,19.0,15.1,85,29.91,6.0,North,15.0,20.7,N/A,,Overcast,360,2013-01-29 22:52:00
5:22 PM,17.6,15.8,93,29.84,7.0,North,15.0,-,N/A,,Overcast,360,2013-01-29 23:22:00
5:52 PM,18.0,14.0,84,29.93,10.0,North,19.6,-,N/A,,Overcast,350,2013-01-29 23:52:00
6:03 PM,17.6,12.2,79,29.85,10.0,North,13.8,-,N/A,,Overcast,360,2013-01-30 00:03:00
6:52 PM,18.0,12.9,81,29.99,10.0,NNW,11.5,-,N/A,,Overcast,340,2013-01-30 00:52:00
7:52 PM,19.0,15.1,85,30.02,10.0,NNW,11.5,-,N/A,,Overcast,340,2013-01-30 01:52:00
8:02 PM,19.4,15.8,86,29.93,8.0,NNW,16.1,21.9,0.00,Snow,Light Snow,340,2013-01-30 02:02:00
8:52 PM,19.0,14.0,81,30.03,9.0,NNW,12.7,20.7,0.00,,Overcast,330,2013-01-30 02:52:00
9:40 PM,19.4,14.0,80,29.95,10.0,NW,11.5,-,N/A,,Overcast,320,2013-01-30 03:40:00
9:52 PM,19.0,14.0,81,30.04,10.0,NW,12.7,-,N/A,,Overcast,320,2013-01-30 03:52:00
10:52 PM,19.0,14.0,81,30.03,9.0,NNW,15.0,-,0.00,Snow,Light Snow,330,2013-01-30 04:52:00
11:48 PM,19.4,15.8,86,29.95,2.0,NNW,16.1,-,0.00,Snow,Light Snow,330,2013-01-30 05:48:00
11:52 PM,19.9,15.1,81,30.03,2.0,NNW,18.4,25.3,0.00,Snow,Light Snow,330,2013-01-30 05:52:00